一网星座-0455星 (ONEWEB-0455 )

导读

ONEWEB-0455是英国OneWeb公司低轨宽带卫星星座的一员,于2022年2月10日发射入轨。卫星重约147.5公斤,运行于1200公里近地轨道,配备Ku和Ka波段天线,采用氙等离子体推力器,设计寿命超7年。它旨在为全球尤其是偏远地区提供低时延宽带互联网接入,服务航空、海事、应急响应等领域,助力全球无缝网络覆盖建设。

基本信息
目录编号:
51645
目录名称:
ONEWEB-0455
国际标识:
2022-012Z
轨道中心:
EARTH
卫星名称:
一网星座-0455星
卫星全名:
一网星座-0455星 (ONEWEB-0455 )
卫星状态:
在轨 (已飞行1675 天)
发射日期:
2022-02-10 UTC
国别 :
英国 (GB)
星等 :
--
该卫星已列入 空间交会检测服务 Space Conjunction Data Service (SCDS) ,当前飞行风险评估等级: 无高风险
轨道信息
数据来源 国际轨道数据 AOE轨道数据
星历时间 2026-09-11T20:02:33+0800
15小时前
查看轨道信息
2026-09-10T13:00:00+0800
1天前
查看轨道信息
半长轴 7191.102km 7191.103km
偏心率 0.0015396 0.0015193
轨道倾角 87.524° 87.526°
近地点辐角 218.774° 223.148°
升交点赤经 247.974° 248.341°
平近点角 141.234° 351.922°
近地点 801.893km 802.04km
远地点 824.037km 823.892km
周期 101.147分钟 101.147分钟
每日圈数 14.236709 14.236706
详细信息
平衡模式:
三轴稳定
覆盖范围:
全球
运营商:
一网卫星公司
运营商所在国:
英国
制造商(研发单位):
一网卫星公司
制造商所在国:
英国
使用方式:
暂无
卫星简介
OneWeb卫星网络由648颗重约125公斤的微型卫星组成,运行在1200公里的轨道上。 每颗卫星都能够提供至少每秒8千兆位的吞吐量,以使用其高吞吐量的Ku频段有效载荷为家庭和移动平台提供互联网接入。该卫星已退役。
2D轨道图
3D轨道图
轨道高度分析图
轨道倾角分析图
轨道综合分析图
查看轨道综合分析图
与全量物体交会距离演化趋势
与全量物体交会风险概率演化趋势